User: anonymous   Login
Location: Mercogliano
(40.9167°N, 14.7333°E)
Time: 06:06:18
(UTC+00:00)
Language:

Cosmos 2084 Rocket - Orbit

View from above orbital plane
View from above orbital plane
View from above satellite
View from above satellite

Ground track
Ground track

The orbit data is extracted from the following two-line orbital elements,

1 20666U 90055D   20339.43269485  .00000235  00000-0  39981-4 0  9991
2 20666  62.7858 236.6441 0070661  11.0374 349.2250 14.92402651650134
Epoch (UTC): 04 December 2020 10:23:04
Eccentricity: 0.0070661
inclination: 62.7858°
perigee height: 541 km
apogee height: 639 km
right ascension of ascending node: 236.6441°
argument of perigee: 11.0374°
revolutions per day: 14.92402651
mean anomaly at epoch: 349.2250°
orbit number at epoch: 65013

The dashed part of the orbit path shows where the satellite is in the earth's shadow,  

DLR